Other Public Products
Issued by NWS Grand Forks, ND

Home | Current Version | Previous Version | Graphics & Text | Print | Product List | Glossary On
Versions: 1 2 3 4 5 6 7 8 9 10 11 12 13 14 15 16 17 18 19 20 21 22 23 24 25 26 27 28 29 30 31 32 33 34 35 36 37 38 39 40 41 42 43 44 45 46 47 48 49 50
537
FPUS83 KFGF 092131
OPUFGF
PRAIRIE TO PINES WEATHER ROUNDUP
NATIONAL WEATHER SERVICE EASTERN NORTH DAKOTA/GRAND FORKS ND
300 PM CST FRI DEC 09 2016

 **SATELLITE DATA USED TO AUGMENT SKY COVER AT AUTOMATED STATIONS**
 *****  WEATHER ACROSS EASTERN NORTH DAKOTA  *****

CITY           SKY/WX    TMP DP  RH WIND       PRES   REMARKS
GRAND FORKS    MOSUNNY    2  -8  63 NW8       30.57S WCI -12
GRAND FORKS AF SUNNY      1  -9  62 NW9       30.56S WCI -14
GRAND CITY NWS NOT AVBL
BUXTON           N/A     32  26  78 NW8         N/A  WCI  25
DEVILS LAKE    MOSUNNY   -5 -11  75 NW12      30.51F WCI -23
FARGO          MOSUNNY    6  -2  69 NW10      30.56S WCI  -9
WAHPETON ARPT  PTCLDY     7  -2  66 NW9       30.55S WCI  -7
$$

 *****  WEATHER ACROSS CENTRAL AND WESTERN NORTH DAKOTA  *****

CITY           SKY/WX    TMP DP  RH WIND       PRES   REMARKS
JAMESTOWN      SUNNY     -3  -9  75 NW12      30.51F WCI -21
BISMARCK       MOSUNNY    0  -7  72 NW9       30.55R WCI -15
MINOT          SUNNY     -8 -14  74 W10       30.54R WCI -26
MINOT AFB      SUNNY    -10 -16  74 W9        30.54R WCI -28
GARRISON         N/A     -6 -12  75 NW12      30.51S WCI -25
WILLISTON      MOSUNNY   -2 -11  65 NE7       30.54F WCI -15
DICKINSON      NOT AVBL
HETTINGER      PTSUNNY   -1  -8  72 N5        30.43S WCI -11
$$

 *****  OTHER OBSERVATIONS NORTHEAST NORTH DAKOTA  *****

CITY           SKY/WX    TMP DP  RH WIND       PRES   REMARKS
WALHALLA         N/A      0   0 100 NW12      30.57R WCI -18
LANGDON        CLOUDY    -6 -11  77 NW8       30.48S WCI -21
CAVALIER         N/A      0  -6  78 NW8       30.57R WCI -15
GRAFTON        FAIR      -2  -9  71 NW12      30.59R WCI -20
CANDO          CLOUDY    -6 N/A N/A NW10      30.54S WCI -23
FORT TOTTEN      N/A     -2  -8  76 NW8       29.95S WCI -17
ROLLA          CLOUDY    -8 -15  71 NW12      30.48S WCI -27
RUGBY            N/A    -11 -15  84 NW13      30.53S WCI -32
 ***** THE ABOVE OBSERVATIONS ARE NON NWS ARE NOT QUALITY
        CONTROLLED AND MAY MIS-REPORT RAIN FOR SNOW...
$$

 *****  OTHER OBSERVATIONS SOUTHEAST NORTH DAKOTA *****

CITY           SKY/WX    TMP DP  RH WIND       PRES   REMARKS
COOPERSTOWN    FAIR      -2  -8  78 NW10      30.52R WCI -19
VALLEY CITY    FAIR       0  -6  78 NW9       30.54S WCI -16
OAKES          NOT AVBL
GWINNER        FAIR       7   0  72 NW10      30.54R WCI  -8
SHEYENNE NWR     N/A      6  -6  59 N8        29.95S WCI  -7
BUFFALO          N/A      1  -6  71 NW8         N/A  WCI -12
WYNDMERE         N/A      7   0  72 N8          N/A  WCI  -6
 ***** THE ABOVE OBSERVATIONS ARE NON NWS ARE NOT QUALITY
       CONTROLLED AND MAY MIS-REPORT RAIN FOR SNOW...
$$

  *****  WEATHER ACROSS NORTHERN MINNESOTA  *****

CITY           SKY/WX    TMP DP  RH WIND       PRES   REMARKS
FLAG ISLAND    PTCLDY     3  -2  78 W12       30.47S WCI -13
WARROAD        CLOUDY     1  -6  71 SW9       30.50R HAZE    WCI -14
ROSEAU         CLOUDY     1  -6  71 W8        30.51S WCI -12
HALLOCK        CLOUDY     0  -6  78 NW7       30.55S WCI -13
THF RVR FALLS  FLURRIES   4  -2  76 W10       30.52S WCI -11
HALSTAD          N/A      3  -2  80 NW9         N/A  WCI -12
FOSSTON        CLOUDY     3  -2  78 W8        30.49S WCI -10
BAUDETTE       CLEAR      3  -7  63 W10       30.47R WCI -12
WASKISH        CLOUDY     7   0  72 NW13      30.46S WCI  -9
CROOKSTON      CLOUDY     1  -2  85 NW12      30.56S WCI -15
$$
  *****  WEATHER ACROSS CENTRAL AND WEST MINNESOTA  *****

CITY           SKY/WX    TMP DP  RH WIND       PRES   REMARKS
BEMIDJI        CLOUDY     6  -2  70 W12       30.45S WCI -10
PARK RAPIDS    CLOUDY     8  -3  61 W9        30.45R WCI  -5
WADENA         PTSUNNY    7  -2  66 W5        30.47R WCI  -2
DETROIT LAKES  PTSUNNY    5   0  78 NW7       30.49F WCI  -7
MOORHEAD       MOSUNNY    3  -2  78 NW9       30.56S WCI -11
FERGUS FALLS   CLOUDY     3   0  85 NW9       30.57S WCI -11
ELBOW LAKE     CLOUDY     6   0  78 NW7       30.51F HAZE    WCI  -6
MORRIS MN      PTSUNNY    7   0  72 N14       30.51S HAZE    WCI -10
STAPLES        CLOUDY     9   1  72 W9        30.47S WCI  -5
WHEATON        MOSUNNY    9   1  72 NW7       30.56S WCI  -3
$$
  *****  WEATHER ELSEWHERE ACROSS MINNESOTA  *****

CITY           SKY/WX    TMP DP  RH WIND       PRES   REMARKS
DULUTH         FLURRIES   9   1  70 NW10      30.42R WCI  -5
INTRNTL FALLS  CLOUDY     5  -3  69 W7        30.45S WCI  -7
ELY            CLOUDY     5   0  78 W8        30.40S WCI  -8
CLOQUET        FLURRIES  10   1  67 NW6       30.43S WCI   1
BRAINERD       CLOUDY    10   1  67 NW7       30.46F WCI  -1
HIBBING        LGT SNOW   5  -2  72 NW13      30.43S WCI -12
ALEXANDRIA     LGT SNOW   5  -2  72 NW10      30.48S WCI -10
SAINT CLOUD    PTSUNNY   13   4  67 NW9       30.49S WCI   1
MINNEAPOLIS    PTSUNNY   18   7  62 W8        30.50S WCI   8
$$

  *****  WEATHER ACROSS SOUTH DAKOTA  *****

CITY           SKY/WX    TMP DP  RH WIND       PRES   REMARKS
SIOUX FALLS    FLURRIES  15   6  67 N5        30.48F WCI   8
BROOKINGS      FLURRIES   8   2  76 NW6       30.46F WCI  -2
WATERTOWN      CLOUDY     4  -2  76 N9        30.45F HAZE    WCI -10
HURON          LGT SNOW   6   1  80 NE9       30.51F WCI  -8
SISSETON         N/A      6  -1  73 N12       30.52F WCI  -9
ABERDEEN       CLOUDY     8  -3  61 N5        30.54S HAZE    WCI   0
MITCHELL       LGT SNOW  11   5  77 NE8       30.50F WCI  -1
PIERRE         LGT SNOW   6  -1  73 N10       30.48R WCI  -9
MOBRIDGE       CLOUDY     2  -5  72 N10       30.49S WCI -14
RAPID CITY     FLURRIES   3  -3  76 N7        30.34S WCI  -9
$$

  *****  SOME WEATHER IN NEARBY STATES *****

CITY           SKY/WX    TMP DP  RH WIND       PRES   REMARKS
GLASGOW MT     PTSUNNY    0  -6  76 SE7       30.43F WCI -13
GREAT FALLS MT SUNNY      2  -7  66 E5        30.18F WCI  -8
CHEYENNE WY    CLOUDY    45  24  43 W16G22    30.07R
SCOTTSBLUFF NE SUNNY     27  10  49 NE7       30.18S WCI  19
OMAHA NE       CLOUDY    20   8  60 E3        30.54F
DES MOINES IA  CLOUDY    23   9  55 W8        30.55R WCI  14
DAVENPORT IA   PTSUNNY   23  13  65 W13       30.54S WCI  11
CHICAGO IL     PTSUNNY   25  13  60 W13       30.49S WCI  14
EAU CLAIRE WI  FLURRIES  18  11  74 W13       30.47F WCI   5
LA CROSSE WI   SUNNY     24  10  55 W10       30.50F WCI  14
$$

  *****  SOME NATIONAL WEATHER *****

CITY           SKY/WX    TMP DP  RH WIND       PRES   REMARKS
LA GUARDIA NY  MOCLDY    40  18  41 NW26G32   30.15R
RALEIGH NC     PTCLDY    40  11  30 NW8       30.40R
ATLANTA GA     SUNNY     42  14  32 NW10      30.41R
NEW ORLEANS LA MOSUNNY   50  24  36 N7        30.47S
OKLAHOMA CITY  CLOUDY    33  13  43 S10       30.46F WCI  25
ALBUQUERQUE NM CLOUDY    43  27  53 SW8       30.30F
SALT LAKE CITY PTSUNNY   42  33  70 N6        30.16F
LOS ANGELES CA PTSUNNY   62  56  80 SW6       30.20F
BOISE ID       CLOUDY    31  28  89 SE3       30.08F FOG
SEATTLE WA     LGT RAIN  34  32  92 E16       29.94F WCI  24
$$

*** WEATHER ACROSS MANITOBA...SASKATCHEWAN AND ONTARIO ***
                ***ONTARIO***

CITY           SKY/WX    TMP DP  RH WIND       PRES   REMARKS
GERALDTON      FLURRIES   9   1  72 NW5       30.32S WCI   0
THUNDER BAY    FLURRIES  16   7  67 NW6       30.40R WCI   7
SIOUX LOOKOUT  FLURRIES   7   0  72 W7        30.37R WCI  -5
TORONTO        MOCLDY    28  10  47 NW18      30.26R WCI  16
BIG TROUT LK   FLURRIES  -2  -6  84 NW12      30.40S WCI -20
PICKLE LAKE    FLURRIES   0  -6  78 NW5       30.34S WCI -10
DRYDEN         LGT SNOW   5   0  78 W9        30.38R WCI  -9
KENORA         LGT SNOW   3  -2  78 W8        30.42R WCI -10
$$
                *** MANITOBA***

CITY           SKY/WX    TMP DP  RH WIND       PRES   REMARKS
BRANDON        FLURRIES  -4 -11  71 NW15      30.54S WCI -25
DAUPHIN        CLEAR     -8 -15  71 W9        30.58S WCI -25
ISLAND LAKE    FLURRIES -11 -17  77 NW7       30.51S WCI -26
PILOT MOUND      N/A     -8 -13  77 NW10        N/A  WCI -26
THE PAS        CLOUDY    -6 -13  71 NW12      30.58F WCI -24
THOMPSON       FLURRIES  -6 -11  77 W6        30.56F WCI -18
WINNIPEG       MOCLDY     1  -6  71 NW10      30.55R WCI -14
LYNN LAKE      CLOUDY    -6  -9  84 W3        30.54F
CHURCHILL      PTCLDY    -6 -11  77 NW21G26   30.45F WCI -30
GILLAM         MOCLDY    -2  -9  71 NW14      30.50S WCI -21
$$
                ***SASKATCHEWAN***

CITY           SKY/WX    TMP DP  RH WIND       PRES   REMARKS
ESTEVAN        MOSUNNY  -13 -17  84 W8        30.53S WCI -30
KINDERSLEY     MOSUNNY   -6 -13  71 VRB2      30.45F
LLOYDMINSTER   CRYSTALS  -9 -13  84 S3        30.47F
PRINCE ALBERT  CLEAR     -6 -15  65 NW2       30.57F
REGINA         CRYSTALS  -8 -11  84 NW6       30.53S FOG     WCI -21
YORKTON        CLEAR     -6 -13  71 W8        30.52F WCC1F1C2F2C3F3C4F4C5F5C6F6C7F7C8F8C9F9CaFaCbFbCcFcCdFdCe!



USA.gov is the U.S. government's official web portal to all federal, state and local government web resources and services.